[Iaude] MPEC T48: 2017 TV1 [a=0.95,e=0.37,i=4.8,H=26.4]

mpec at mpcdb1.cfa.harvard.edu mpec at mpcdb1.cfa.harvard.edu
Wed Oct 11 10:49:19 EDT 2017


M.P.E.C. 2017-T48                                Issued 2017 Oct. 11, 14:45 UT
 
     The Minor Planet Electronic Circulars contain information on unusual
         minor planets and routine data on comets.  They are published
    on behalf of Division F of the International Astronomical Union by the
          Minor Planet Center, Smithsonian Astrophysical Observatory,
                          Cambridge, MA 02138, U.S.A.

             Prepared using the Tamkin Foundation Computer Network

                              MPC at CFA.HARVARD.EDU
            URL http://www.minorplanetcenter.net/    ISSN 1523-6714


                                   2017 TV1
 
Observations:
     K17T01V* C2017 10 10.41939 00 48 59.83 -00 55 21.4          20.3 GUET048703
     K17T01V  C2017 10 10.41979 00 48 59.54 -00 55 28.4          18.4 GUET048703
     K17T01V  C2017 10 10.42020 00 48 59.17 -00 55 37.2          18.8 GUET048703
     K17T01V  C2017 10 10.42060 00 48 58.73 -00 55 44.9          18.5 GUET048703
     K17T01V  C2017 10 10.42906 00 48 50.66 -00 58 38.1          17.8 GUET048703
     K17T01V  C2017 10 10.42981 00 48 50.00 -00 58 51.7          18.9 GUET048703
     K17T01V  C2017 10 10.43057 00 48 49.26 -00 59 06.1          19.1 GUET048703
     K17T01V  C2017 10 10.43132 00 48 48.56 -00 59 20.5                UET048703
     K17T01V  C2017 10 10.45098300 48 29.58 -01 06 08.2          18.6 GUET048H01
     K17T01V  C2017 10 10.45412 00 48 37.768-01 06 08.29         18.6 iLET048F51
     K17T01V  C2017 10 10.45976000 48 21.36 -01 09 07.1          19.6 GUET048H01
     K17T01V  C2017 10 10.46856 00 48 23.118-01 11 04.23         19.6 iLET048F51
     K17T01V  C2017 10 10.47079200 48 11.00 -01 12 53.2          18.6 GUET048H01
     K17T01V  C2017 10 10.47371000 48 08.26 -01 13 53.2          18.7 GUET048H01
     K17T01V  C2017 10 10.48298 00 48 08.488-01 16 00.71         18.9 iLET048F51
     K17T01V KC2017 10 10.85535 00 42 26.90 -03 35 38.4                qET048160
     K17T01V KC2017 10 10.85754 00 42 24.53 -03 36 30.4          18.8 RqET048160
     K17T01V KC2017 10 10.85971 00 42 22.05 -03 37 22.4                qET048160
     K17T01V KC2017 10 11.00668 00 39 29.77 -04 37 44.8          18.8 GUET048204
     K17T01V KC2017 10 11.01321 00 39 21.90 -04 40 30.1                UET048204
     K17T01V  C2017 10 11.29007 00 34 01.11 -06 43 08.9          17.9 GUET048703
     K17T01V  C2017 10 11.29082 00 34 00.12 -06 43 31.3          18.8 GUET048703
     K17T01V  C2017 10 11.29232 00 33 58.00 -06 44 13.0          18.3 GUET048703
 
Observer details:
160 Castelmartini.  Observers M. Jaeger, E. Prosperi, S. Prosperi, W. Vollmann.
    Measurer E. Prosperi.  0.35-m f/10 Schmidt-Cassegrain + CCD.
204 Schiaparelli Observatory.  Observer L. Buzzi.  0.60-m f/4.64 reflector
    + CCD.
703 Catalina Sky Survey.  Observer D. C. Fuls.  Measurers E. J. Christensen,
    D. C. Fuls, A. R. Gibbs, A. D. Grauer, J. A. Johnson, R. A. Kowalski,
    S. M. Larson, G. J. Leonard, R. G. Matheny, R. L. Seaman, F. C. Shelly.
    0.68-m Schmidt + 10K CCD.
F51 Pan-STARRS 1, Haleakala.  Observers J. Bulger, T. Lowe, A. Schultz,
    M. Willman.  Measurers K. Chambers, S. Chastel, L. Denneau, H. Flewelling,
    M. Huber, E. Lilly, E. Magnier, R. Wainscoat, C. Waters, R. Weryk.  1.8-m
    Ritchey-Chretien + CCD.
H01 Magdalena Ridge Observatory, Socorro.  Observers W. H. Ryan, E. V. Ryan.
    Measurer W. H. Ryan.  2.4-m f/8.9 reflector + CCD.
 
Orbital elements:
2017 TV1                                                 Earth MOID = 0.0085 AU
Epoch 2017 Sept. 4.0 TT = JDT 2458000.5                 MPC
M 238.53512              (2000.0)            P               Q
n   1.06815639     Peri.  304.82045     -0.76435844     -0.64442486
a   0.9477915      Node   195.09587     +0.61549653     -0.71916716
e   0.3652788      Incl.    4.78913     +0.19214629     -0.25983686
P   0.92           H   26.4           G   0.15           U   7
Residuals in seconds of arc
171010 703 (1.9-  0.8-)   171010 H01  0.2+  0.2-    171010 160  0.7+  0.2+
171010 703  0.5-  0.3+    171010 F51  0.0   0.0     171010 160  0.3+  0.1+
171010 703  0.2-  0.3-    171010 H01  0.7+  0.1+    171011 204  0.1+  0.3-
171010 703  1.1-  0.1+    171010 F51  0.1-  0.2-    171011 204  0.3+  0.5-
171010 703 (0.9-  2.3-)   171010 H01  0.5+  0.1-    171011 703  0.5-  0.7+
171010 703  0.0   0.7-    171010 H01  0.3+  0.2-    171011 703  0.3+  0.5-
171010 703  0.3-  0.3+    171010 F51  0.2+  0.2+    171011 703  0.3-  0.3+
171010 703  0.0   1.0+    171010 160  0.8-  0.2-

Ephemeris:
2017 TV1                 a,e,i = 0.95, 0.37, 5                   q = 0.6016
Date    TT    R. A. (2000) Decl.     Delta      r     Elong.  Phase     V
2017 09 11    01 42 21.7 +20 14 04   0.2132  1.1704   136.4    36.4    24.9
...
2017 09 26    01 42 18.4 +18 56 28   0.1131  1.1032   151.3    25.9    23.1
...
2017 10 04    01 30 38.2 +14 40 40   0.06366 1.0616   163.6    15.4    21.4
...
2017 10 10    00 54 53.6 +01 18 06   0.02935 1.0278   174.5     5.3    19.2
2017 10 11    00 39 44.0 -04 29 59   0.02429 1.0220   167.0    12.7    19.1
2017 10 12    00 16 37.1 -13 04 59   0.01977 1.0161   155.9    23.7    19.0
...
2017 10 18    16 02 17.7 -48 31 09   0.02642 0.9797    50.2   128.6    24.0
...
2017 10 26    14 35 57.2 -33 49 06   0.07182 0.9284    22.9   155.4    30.1
...
2017 11 10    14 15 59.2 -27 20 05   0.1704  0.8264    14.5   162.5    34.1

A. U. Tomatic                (C) Copyright 2017 MPC           M.P.E.C. 2017-T48




More information about the Iaude mailing list